Probability
23 23 20 17 14 14 15 16 14 12 12 14 15 16 16 17 17 17 14 11 8 6 6 6 6 6 5 3 1 0 0 0 0 0 0 0 0 0 0 1 1 1 0
24 24 22 18 16 16 17 15 13 11 11 13 14 13 14 15 15 14 12 9 7 6 7 7 6 6 5 2 0 0 0 0 0 0 0 0 0 0 1 2 2 2 1
25 24 22 19 18 18 17 15 12 11 11 13 13 12 12 12 11 11 10 8 7 6 6 6 6 5 4 3 1 0 0 0 0 0 0 0 0 1 2 3 3 2 1
22 21 18 16 16 16 16 15 14 14 14 15 13 12 11 10 11 11 11 9 7 5 4 4 4 4 4 4 4 2 2 1 1 1 1 0 0 1 4 4 3 1 0
19 17 15 13 12 12 14 15 16 17 16 14 12 11 10 10 12 13 12 11 9 6 4 4 4 5 5 6 6 4 3 3 2 2 2 1 0 1 4 5 4 1 0
19 17 15 13 10 10 12 14 15 16 15 13 11 11 11 11 12 13 12 12 11 8 6 6 6 6 7 6 5 4 3 3 3 3 2 1 1 2 4 4 3 1 0
18 17 16 14 12 11 13 14 14 14 12 11 12 12 12 12 12 11 10 11 11 10 8 6 6 6 6 5 4 3 2 3 3 3 2 1 2 3 4 4 3 2 1
17 16 15 14 14 14 15 15 14 12 11 10 11 12 13 13 12 9 7 8 11 10 7 5 5 5 5 4 3 2 1 1 2 2 1 1 1 2 3 3 3 2 2
16 14 13 14 15 16 16 14 12 11 11 10 8 9 11 11 10 7 4 6 8 7 5 5 5 4 3 2 2 2 1 0 0 0 0 0 0 1 1 2 1 1 1
15 15 15 15 16 17 16 13 11 10 10 8 6 5 7 8 7 4 2 3 5 5 4 4 3 2 1 0 1 2 2 1 0 0 0 0 0 0 0 0 0 0 0
16 16 17 17 17 17 16 13 10 9 8 7 6 5 5 5 4 2 1 2 3 5 5 4 2 0 0 0 0 1 1 1 0 0 0 0 0 0 0 0 0 0 0
16 17 17 18 17 16 15 12 10 8 8 7 8 7 5 4 2 0 0 1 2 5 7 6 3 1 0 0 0 0 0 0 0 0 0 0 0 0 0 0 0 0 0
16 16 16 15 14 12 11 9 7 7 7 7 8 8 6 4 3 1 1 0 1 3 6 6 3 1 0 0 0 0 0 0 0 0 0 0 0 0 0 0 0 0 0
14 13 13 11 9 7 6 4 3 5 7 7 8 8 7 5 4 3 2 1 1 1 2 2 1 0 0 0 0 0 0 0 0 0 0 0 0 1 0 0 0 0 0
8 8 9 8 7 5 3 2 1 3 5 5 6 7 6 5 4 3 2 2 2 1 0 0 0 0 0 0 0 0 0 0 0 0 0 0 0 0 0 0 0 0 0
4 4 5 6 5 4 3 1 0 1 2 2 2 4 5 4 3 1 1 1 1 1 0 0 0 0 0 0 0 0 0 0 0 0 0 0 0 0 0 0 0 0 0
3 3 3 4 4 3 3 1 0 0 0 0 0 1 2 3 1 0 0 0 0 0 0 0 0 0 0 0 0 0 0 0 0 0 0 0 0 0 0 0 0 0 0
3 3 3 3 3 3 3 2 0 0 0 0 0 0 0 1 0 0 0 1 1 0 0 0 0 0 0 0 0 0 0 0 0 0 0 0 0 0 0 0 0 0 0
2 3 3 3 3 3 2 1 0 0 0 0 0 0 0 0 0 0 1 2 2 1 0 0 0 0 0 0 0 0 0 0 0 0 0 0 0 0 0 0 0 0 0
1 1 2 2 2 1 1 0 0 0 0 0 1 1 1 1 2 2 2 3 3 2 0 0 0 0 0 0 0 0 0 0 0 0 0 0 0 0 0 0 0 0 0
0 0 1 1 1 0 0 0 0 0 0 0 1 2 2 2 3 3 3 3 3 2 1 1 0 0 0 0 0 0 0 0 0 0 0 0 0 0 0 0 0 0 0
0 0 0 0 0 0 0 0 0 0 0 0 1 2 2 3 3 3 3 3 3 3 2 1 0 0 0 0 0 0 0 0 0 0 0 0 0 0 0 0 0 0 0
0 0 0 0 0 0 0 0 0 0 0 0 1 2 3 3 3 3 3 3 3 3 2 1 0 0 0 0 0 0 0 0 0 0 0 0 0 0 0 0 0 0 0
0 0 0 0 0 0 0 0 0 0 0 1 2 3 3 3 3 3 3 3 3 3 1 0 0 0 0 0 0 0 0 0 0 0 0 0 0 0 0 0 0 0 0
0 0 0 0 0 0 0 0 0 0 1 2 3 3 3 3 3 3 3 3 3 2 1 0 0 0 0 0 0 0 0 0 0 0 0 0 0 0 0 0 0 0 0
0 0 0 0 0 0 0 0 0 0 1 2 3 3 3 3 3 3 3 3 3 1 0 0 0 0 0 0 0 0 0 0 0 0 0 0 0 0 0 0 0 0 0
Wind_Speed
6 5 4 4 3 3 3 3 2 1 1 1 1 1 1 1 1 1 1 1 1 1 1 1 2 1 1 1 0 0 1 2 3 3 2 2 2 2 2 2 3 3 3
5 5 4 4 3 3 3 3 2 2 2 1 1 1 1 1 1 1 1 1 1 1 2 2 2 2 1 1 1 1 2 2 2 3 3 2 2 2 2 2 2 2 2
5 5 4 3 3 3 3 3 2 2 2 2 2 2 2 1 1 2 2 2 2 2 2 2 3 2 2 2 2 2 2 2 2 2 3 2 2 2 2 2 2 2 2
5 4 4 3 3 3 3 3 3 2 2 2 2 2 2 1 2 2 2 1 2 2 2 3 3 3 4 3 3 3 2 2 2 2 3 2 2 2 1 2 2 2 2
5 5 4 4 3 2 2 3 3 3 3 2 2 2 2 2 2 2 2 2 2 2 3 3 3 4 5 4 3 3 2 2 2 2 3 2 2 2 2 2 2 3 3
5 5 4 3 3 3 2 2 2 2 2 2 2 2 2 3 3 3 3 3 3 3 3 3 3 4 5 5 5 4 4 4 3 3 3 3 4 3 3 2 2 1 3
5 4 4 4 4 4 3 2 3 3 2 2 3 3 3 4 5 4 4 3 3 3 3 3 3 3 3 3 4 5 5 6 6 4 4 5 4 4 3 3 3 3 4
3 4 4 4 4 3 3 3 3 2 3 3 3 3 3 4 5 4 4 2 2 2 3 4 4 4 3 3 3 3 4 5 5 4 4 5 5 5 5 5 4 3 3
3 3 3 4 3 3 3 3 3 3 3 3 3 4 4 4 5 4 4 2 2 3 4 4 4 4 5 4 3 4 5 5 6 6 6 6 7 6 4 2 2 2 3
4 4 3 3 3 4 4 3 3 3 3 3 3 3 4 4 4 4 4 2 3 3 4 4 6 5 5 5 4 4 5 6 4 5 5 6 5 5 5 4 4 3 2
3 3 2 3 3 3 3 2 2 2 2 2 3 3 3 4 4 5 4 2 3 3 3 3 4 6 6 6 5 5 7 6 3 3 3 4 3 3 3 3 3 4 4
2 2 2 2 2 2 2 2 2 2 2 3 3 3 3 3 4 4 5 5 4 4 4 3 4 7 7 7 5 6 7 5 2 2 3 3 3 3 3 3 3 3 4
2 1 1 1 1 1 2 2 2 2 2 3 3 3 3 2 3 5 6 6 6 4 4 5 6 6 6 4 5 6 4 2 2 2 3 4 3 3 2 2 1 1 1
2 2 2 2 2 1 1 2 2 2 3 3 3 3 3 2 2 2 2 3 4 4 3 4 5 4 3 3 3 3 2 3 3 3 3 3 2 1 1 1 1 1 1
2 2 2 2 2 2 2 2 3 3 4 4 4 4 3 3 5 5 3 3 3 3 1 1 1 1 1 2 2 2 2 2 2 2 2 2 2 2 2 1 1 1 1
2 2 2 2 2 2 1 2 3 3 4 5 6 6 5 6 5 5 5 5 4 3 2 1 1 2 2 2 2 2 2 2 3 2 2 2 2 2 2 1 1 1 1
3 3 2 2 2 2 2 1 2 4 4 4 5 6 6 6 5 4 4 3 2 4 2 2 2 2 2 2 2 2 2 2 2 2 2 2 2 1 1 1 1 1 1
3 3 2 2 2 2 2 2 2 2 3 4 4 4 4 4 4 3 2 2 1 1 2 2 2 2 2 2 2 2 2 2 1 1 1 1 1 1 2 2 1 1 1
3 2 2 2 2 2 2 2 2 2 2 3 3 3 3 2 1 1 3 2 2 2 2 1 1 1 1 1 2 1 1 1 1 1 1 1 1 0 1 1 1 1 1
3 4 3 2 1 1 2 2 2 2 2 2 2 2 1 1 1 0 1 2 2 2 2 1 2 1 1 1 1 1 1 1 1 1 1 1 1 1 1 1 1 1 1
2 2 3 1 1 1 2 2 2 2 2 2 3 2 2 2 2 2 2 2 2 3 2 2 2 1 1 1 1 1 1 2 1 1 1 1 1 1 1 1 1 1 1
1 1 1 1 1 1 1 2 2 2 2 2 2 1 2 1 1 1 1 2 2 2 2 2 2 2 2 2 2 2 2 2 2 1 1 1 1 1 1 0 0 0 1
1 1 1 1 1 2 2 2 2 2 1 1 1 0 1 1 1 1 1 1 1 1 1 1 1 1 1 2 2 2 3 3 3 3 2 2 2 1 1 1 1 0 1
1 1 1 1 0 1 1 2 2 2 2 2 2 2 2 2 2 2 2 2 1 1 1 1 1 1 1 1 1 1 2 2 2 2 3 3 2 2 1 1 1 1 1
1 1 1 0 0 1 1 1 1 1 2 2 2 2 2 2 1 1 1 1 1 1 1 1 1 1 2 1 1 1 1 1 1 1 2 2 1 1 1 1 1 0 0
1 1 1 0 0 1 1 1 1 1 1 1 1 1 1 1 2 1 1 1 1 1 2 1 2 2 2 2 2 1 1 1 1 1 1 1 1 1 1 1 1 1 1
Wind_Direction
180 179 177 182 187 185 196 212 216 229 227 222 211 214 229 241 228 196 249 253 238 266 261 231 255 244 252 272 228 223 224 195 240 274 266 276 263 268 279 260 256 249 252
175 169 180 185 185 190 205 218 211 213 223 223 200 206 228 234 229 217 248 256 244 256 256 244 258 256 244 244 233 244 240 225 215 263 282 276 261 255 259 266 281 276 255
165 165 175 189 193 201 208 208 200 204 211 206 196 205 226 236 237 240 239 238 238 247 245 239 250 248 250 245 235 236 241 253 224 235 270 268 267 282 293 289 293 291 281
161 163 176 192 196 202 202 195 201 201 204 215 208 203 217 237 250 249 241 240 253 261 258 254 256 247 241 239 239 237 231 242 246 247 267 276 269 271 249 272 297 292 288
161 170 190 194 192 195 198 198 200 199 207 205 192 210 235 239 249 246 239 237 244 253 257 254 246 256 263 251 240 227 218 222 235 244 260 272 270 278 261 248 266 278 280
167 183 189 184 189 199 202 200 197 196 192 195 204 209 229 249 259 250 230 232 236 238 246 255 259 267 271 269 267 252 232 226 231 232 248 254 258 251 251 249 248 281 283
172 183 185 186 196 205 206 201 205 206 200 202 222 217 229 247 250 253 246 229 230 231 235 244 261 274 264 256 273 281 275 268 251 233 236 246 246 239 231 244 235 228 245
174 186 189 192 205 207 199 209 220 213 210 217 224 231 236 249 249 255 255 237 239 250 247 236 237 262 258 247 254 274 277 274 269 253 240 246 247 239 223 226 230 245 267
176 182 194 196 203 208 211 221 226 223 227 228 226 226 235 253 252 246 233 229 238 255 259 252 241 245 260 252 242 262 278 280 278 275 275 269 271 266 247 220 221 216 264
191 192 195 188 192 201 212 223 232 226 234 233 239 236 235 242 250 238 219 215 242 255 263 261 255 252 256 247 234 242 261 270 281 294 293 290 281 275 256 214 205 212 238
194 187 192 196 198 202 203 213 229 242 255 249 248 251 243 238 243 236 222 213 233 247 254 261 263 263 259 254 241 236 249 258 265 270 281 287 286 274 261 239 216 204 212
163 170 192 210 221 209 195 229 236 228 249 259 258 265 259 249 235 233 229 233 233 233 245 250 260 266 264 261 249 254 262 264 259 269 273 273 268 264 262 254 242 227 215
154 187 207 203 240 217 200 222 249 245 243 253 248 251 262 259 245 238 234 240 244 239 250 259 269 272 267 263 263 266 263 241 238 251 257 259 252 250 258 268 284 275 277
180 220 220 199 237 250 236 222 226 232 237 244 243 245 253 261 254 250 246 249 255 258 271 284 284 274 267 270 285 274 243 226 223 240 251 258 267 271 265 256 266 284 310
225 227 227 218 219 236 244 241 238 240 230 232 237 227 224 244 250 232 222 234 231 237 247 303 334 325 308 298 291 276 258 250 240 244 246 261 263 259 262 263 259 269 261
237 246 237 226 223 218 225 302 308 273 269 249 242 234 234 231 236 237 247 250 239 213 161 205 258 260 264 273 273 277 264 252 249 241 234 234 245 246 258 269 247 235 257
218 239 242 233 231 232 225 231 293 319 317 289 265 247 236 237 234 233 240 251 228 165 169 226 241 250 261 272 268 259 264 263 253 236 230 239 242 239 236 250 257 261 271
231 236 234 230 230 230 232 229 229 254 296 307 298 269 249 246 245 241 219 126 96 160 212 227 240 254 266 277 280 281 292 311 309 286 265 263 247 233 233 232 226 224 244
231 233 222 222 225 223 220 222 242 253 260 282 298 300 282 264 248 210 144 154 189 217 228 231 243 253 274 290 293 287 282 287 298 290 286 282 278 256 259 245 231 238 247
234 242 236 217 219 228 220 217 240 253 253 265 271 268 289 71 82 165 172 186 192 211 222 225 231 235 249 271 288 298 304 298 298 293 287 278 261 236 239 254 244 244 247
249 247 245 235 220 217 225 229 237 247 249 256 256 239 175 175 208 213 205 206 208 212 216 220 223 230 233 245 249 254 260 270 269 272 280 280 277 271 261 233 252 243 247
262 249 222 216 223 231 237 238 231 235 250 262 269 256 189 189 214 218 224 227 224 219 210 201 212 221 220 220 219 218 227 248 255 248 255 265 266 267 261 241 246 269 256
280 235 243 253 243 251 259 251 234 230 233 244 248 231 208 227 228 224 229 230 226 231 231 205 210 238 240 229 210 198 209 230 235 223 221 237 245 238 226 222 222 237 274
284 247 235 250 250 241 251 255 247 239 232 232 229 220 215 219 227 231 231 226 219 237 243 224 214 229 244 251 240 235 239 238 232 216 210 214 225 229 217 221 238 223 222
303 282 278 240 234 248 262 257 247 243 246 242 233 221 219 220 227 241 241 225 204 212 230 220 222 228 226 230 240 265 270 261 258 254 219 203 208 220 210 215 218 178 163
340 319 284 237 247 254 255 260 262 246 231 241 245 237 230 229 229 237 231 214 221 232 228 220 222 215 215 215 226 247 252 275 291 302 226 185 168 178 162 169 151 129 115